Location: Newark
(27.9675°N, 86.8869°E)
Time: 15:44:06
(UTC+00:00)

A-11 Canister half - Pass Details

Date: 24 October 2019
Orbit: 1527 x 1682 km, 47.3° (Epoch: 14 November)

Event Time Altitude Azimuth Distance (km) Brightness Sun altitude
Exits shadow 22:32:58 12° 217° (SW) 3,599 10.6 -23.9°
Drops below altitude 10° 22:34:23 10° 208° (SSW) 3,774 10.8 -23.6°
Sets 22:39:38 0° 185° (S) 4,791 11.6 -22.4°
